Location: Haliburton Scout Reserve
(45.0900°N, 78.3200°W)
Time: 01:50:06
(UTC-04:00)

NANOSAT C BR1 - Pass Details

Date: 22 May 2022
Orbit: 583 x 601 km, 98.0° (Epoch: 27 June)

Event Time Altitude Azimuth Distance (km) Brightness Sun altitude
Rises 02:32:03 0° 25° (NNE) 2,821 ? -21.9°
Reaches altitude 10° 02:34:31 10° 38° (NE) 1,914 ? -21.7°
Maximum altitude 02:37:59 26° 95° (E) 1,179 ? -21.5°
Enters shadow 02:39:22 21° 126° (SE) 1,318 ? -21.4°
